Weather in Khambi-Irzi

Russia / Chechen Republic     43°14′02″N   45°27′10″E
temp.,
°C
wind,
m/s
gust,
m/s
humid.,
%
clouds,
%
prec.,
mm/h
press.,
hPa
HPBL,
m
26 june, sun
sun2600:00+18w2289100 0.0 100857
03:00+18wnw2288100 0.0 100847
06:00+19wsw118392 0.0 1008118
09:00+23nnw2266100 0.0 1007741
12:00+23w1168100 0.4 1007542
15:00+25w2158100 1.2 1006943
18:00+25wsw3358100 0.0 1006650
21:00+22w4772100 0.0 1008273
27 june, mon
mon2700:00+19w2391100 1.1 1009100
03:00+18wnw36930 1.3 1009155
06:00+19w368719 0.0 1010303
09:00+25wnw455928 0.0 10101157
12:00+29wnw444480 0.0 10091963
15:00+25nnw346689 0.3 1010376
18:00+22nw128696 2.1 1010164
21:00+21w2389100 4.2 101174
28 june, tue
tue2800:00+20w0192100 2.2 101113
03:00+19nnw1192100 2.3 101011
06:00+20wnw11897 0.0 1011123
09:00+25nne11587 0.0 1011888
12:00+27nne545128 0.5 10101352
15:00+26wsw115597 1.8 1010156
18:00+25wnw356570 0.6 1011301
21:00+19wsw2284100 1.8 101324
29 june, wed
wed2900:00+19w118291 0.3 101214
03:00+17wsw1186100 0.3 101214
06:00+19w127925 0.0 101392
09:00+25ne23460 0.0 1013895
12:00+30ene342839 0.0 10122122
15:00+32ne242374 0.0 10102774
18:00+29ne6938100 0.0 1010672
21:00+22ene4872100 0.0 1013470
30 june, thu
thu3000:00+19e2484100 0.0 1013162
03:00+18ne2486100 0.0 1013209
06:00+19ene2382100 0.2 1014461
09:00+22e236890 0.2 1013945
12:00+28ese344543 0.0 10121756
15:00+29ene653264 0.1 10112169
18:00+25ese464319 0.1 1013827
21:00+20ese356294 0.6 1015146